Location: *
(51.5000°N, 0.1100°W)
Time: 06:21:32
(UTC+00:00)

IDEFIX/ARIANE 42P - Pass Details

Date: 04 August 2024
Orbit: 782 x 799 km, 98.5° (Epoch: 08 September)

Event Time Altitude Azimuth Distance (km) Brightness Sun altitude
Rises 02:15:08 0° 13° (NNE) 3,284 7.2 -15.9°
Reaches altitude 10° 02:17:28 10° 11° (N) 2,351 6.1 -15.7°
Maximum altitude 02:22:37 69° 289° (WNW) 842 2.6 -15.2°
Enters shadow 02:25:50 23° 212° (SSW) 1,610 3.5 -14.9°
